Tracking 20753 objects as of 7-Jun-2020
HD Live streaming from Space Station
objects crossing your sky now
Track the most recent launched group of Starlink satellites

CHINASAT 20

Track CHINASAT 20 now!
CHINASAT 20 is classified as:


NORAD ID: 28082
Int'l Code: 2003-052A
Perigee: 36,097.7 km
Apogee: 36,148.5 km
Inclination: 5.7 °
Period: 1,453.0 minutes
Semi major axis: 42494 km
RCS: 12.5893 m2 (large)
Launch date: November 14, 2003
Source: People's Republic of China (PRC)
Launch site: Xichang Space Center, China (XSC)

Dedicated military communications satellite.
aabbcc
Your satellite tracking list
Your tracking list is empty




NASA's NSSDC Master Catalog

Two Line Element Set (TLE):
1 28082U 03052A   20158.60206035 +.00000048 +00000-0 +00000-0 0  9990
2 28082 005.6820 066.2199 0005976 014.4069 277.0492 00.99108336060564
Source of the keplerian elements: AFSPC